Change the Weather History Date:

Wednesday, December 5, 2012

  Actual Average Record
Temperature  
Mean Temperature 32 °F -  
Max Temperature 35 °F - - ()
Min Temperature 28 °F - - ()
Degree Days  
Heating Degree Days 32    
Moisture  
Dew Point 31 °F    
Average Humidity 90    
Maximum Humidity 100    
Minimum Humidity 75    
Precipitation  
Precipitation 0.00 in - - ()
Sea Level Pressure  
Sea Level Pressure 29.53 in    
Wind  
Wind Speed 8 mph ()    
Max Wind Speed 15 mph    
Max Gust Speed -    
Visibility 5.1 miles    
Events Snow    
T = Trace of Precipitation, MM = Missing Value Source: Averaged Metar Reports

Daily Weather History Graph

Daily Weather History Graph

Search for Another Location

Airport or City:

Trip Planner

Search our weather history database for the weather conditions in past years. The results will help you decide how hot, cold, wet, or windy it might be!

Date:

Astronomy

Dec. 05, 2012 Rise Set
Actual Time 7:40 AM CET 3:57 PM CET
Civil Twilight 7:02 AM CET 4:35 PM CET
Nautical Twilight 6:21 AM CET 5:16 PM CET
Astronomical Twilight 5:42 AM CET 5:55 PM CET
Moon 10:57 PM CET (12/5) 11:30 AM CET (12/5)
Length of Visible Light 9h 33m
Length of Day
8h 17m
Waning Gibbous, 62% of the Moon is Illuminated
Dec 5
Waning Gibbous
Dec 6
Last Quarter
Dec 13
New
Dec 20
First Quarter
Dec 28
Full

Hourly Weather History & Observations

Time (CET) Temp. Windchill Dew Point Humidity Pressure Visibility Wind Dir Wind Speed Gust Speed Precip Events Conditions
12:00 AM 35.6 °F 28.0 °F 32.0 °F 87% 29.47 in - South 10.4 mph - N/A   Clear
1:00 AM 35.6 °F 26.2 °F 32.0 °F 87% 29.44 in - SW 15.0 mph - N/A   Clear
2:00 AM 35.6 °F 26.2 °F 32.0 °F 87% 29.44 in 6.2 mi SW 15.0 mph - N/A   Mostly Cloudy
3:00 AM 35.6 °F 26.2 °F 32.0 °F 87% 29.44 in 6.2 mi WSW 15.0 mph - N/A   Mostly Cloudy
4:00 AM 35.6 °F 26.6 °F 32.0 °F 87% 29.44 in - WSW 13.8 mph - N/A   Clear
5:00 AM 33.8 °F 26.4 °F 32.0 °F 93% 29.44 in - WSW 9.2 mph - N/A   Clear
6:00 AM 35.6 °F 28.0 °F 32.0 °F 87% 29.44 in - WSW 10.4 mph - N/A   Clear
7:00 AM 33.8 °F 27.0 °F 32.0 °F 93% 29.47 in - WSW 8.1 mph - N/A   Clear
8:00 AM 33.8 °F 28.6 °F 32.0 °F 93% 29.47 in 6.2 mi WNW 5.8 mph - N/A   Mostly Cloudy
8:43 AM 33.8 °F 27.0 °F 32.0 °F 93% 29.50 in 1.9 mi NW 8.1 mph - N/A Snow Light Snow Showers
9:00 AM 32.0 °F 24.8 °F 32.0 °F 100% 29.50 in 1.9 mi NW 8.1 mph - N/A Snow Light Snow Showers
9:24 AM 33.8 °F 27.0 °F 32.0 °F 93% 29.53 in 3.1 mi WNW 8.1 mph - N/A Snow Light Snow Showers
10:00 AM 33.8 °F 29.6 °F 33.8 °F 100% 29.53 in 3.1 mi WNW 4.6 mph - N/A Snow Light Snow Showers
11:00 AM 35.6 °F 29.9 °F 33.8 °F 93% 29.56 in 6.2 mi WNW 6.9 mph - N/A   Mostly Cloudy
12:00 PM 35.6 °F 28.6 °F 32.0 °F 87% 29.56 in 6.2 mi WNW 9.2 mph - N/A   Mostly Cloudy
1:00 PM 33.8 °F 27.7 °F 30.2 °F 87% 29.56 in 6.2 mi NW 6.9 mph - N/A   Mostly Cloudy
2:00 PM 35.6 °F 32.8 °F 28.4 °F 75% 29.56 in 6.2 mi NW 3.5 mph - N/A   Mostly Cloudy
4:00 PM 33.8 °F - 28.4 °F 81% 29.59 in - East 1.2 mph - N/A   Clear
5:00 PM 33.8 °F - 30.2 °F 87% 29.59 in - Calm Calm - N/A   Clear
6:00 PM 32.0 °F - 28.4 °F 87% 29.62 in - South 2.3 mph - N/A   Clear
7:00 PM 30.2 °F - 28.4 °F 93% 29.62 in - SSE 2.3 mph - N/A   Clear
8:00 PM 30.2 °F 26.7 °F 30.2 °F 100% 29.62 in 6.2 mi SW 3.5 mph - N/A   Mostly Cloudy
9:00 PM 32.0 °F - 28.4 °F 87% 29.65 in 6.2 mi SW 2.3 mph - N/A   Mostly Cloudy
10:00 PM 30.2 °F 25.4 °F 28.4 °F 93% 29.65 in - WSW 4.6 mph - N/A   Clear
11:00 PM 28.4 °F 24.6 °F 26.6 °F 93% 29.68 in - SSW 3.5 mph - N/A   Clear